Weather in Kurort Kuka

Russia / Zabaykalsky Krai     51°43′46″N   112°56′59″E
temp.,
°C
wind,
m/s
gust,
m/s
humid.,
%
clouds,
%
prec.,
mm/h
press.,
hPa
HPBL,
m
27 january, wed
wed2700:00−23wnw3983100 0.0 1026337
03:00−24wnw3886100 0.0 1027369
06:00−25wnw3886100 0.0 1028351
09:00−25wnw3888100 0.0 1030385
12:00−24wnw3782100 0.0 1030522
15:00−22wnw4781100 0.1 1029649
18:00−24wnw3884100 0.0 1030559
21:00−26w2788100 0.0 1033312
28 january, thu
thu2800:00−29w2290100 0.0 103450
03:00−31w229194 0.0 103524
06:00−33w129210 0.0 103620
09:00−34wsw11925 0.0 103519
12:00−29sw12803 0.0 1032279
15:00−26ssw137950 0.0 1027408
18:00−28sse1193100 0.0 102625
21:00−30wnw119253 0.0 102719
29 january, fri
fri2900:00−31ssw11940 0.0 102519
03:00−30s119630 0.0 102219
06:00−27s1298100 0.0 101825
09:00−26nne22100100 0.1 101629
12:00−22nw3981100 0.1 1015878
15:00−23n5876100 0.1 1017821
18:00−27nnw248542 0.0 102382
21:00−31wnw128821 0.0 102719
30 january, sat
sat3000:00−32n01890 0.0 102819
03:00−33ese019024 0.0 102919
06:00−31ne1191100 0.0 102919
09:00−31nne1192100 0.0 102938
12:00−28ne118691 0.0 1027216
15:00−25ne118895 0.1 1024287
18:00−26nne1199100 0.1 102442
21:00−29ne019999 0.1 102519
31 january, sun
sun3100:00−30ne1199100 0.0 102519
03:00−31nne11100100 0.1 102419
06:00−32nne11100100 0.0 102419
09:00−32nne1110099 0.0 102419
12:00−25ese0086100 0.0 1022158
15:00−19wsw278299 0.0 1020619
18:00−21w4982100 0.1 1023667
21:00−28wsw3987100 0.1 1028306